| time (UTC) | temp F | wind direction | speed knots | gust knots | rain 1hr in | rain 24hr in | rain mn in | humidity % | barometer mb |
| 20260906155017 | 76 | 136 | 6.1 | 8.7 | 0.00 | 0.00 | 0.00 | 84 | 1020.0 |
| 20260906154512 | 77 | 129 | 4.3 | 11.3 | 0.00 | 0.00 | 0.00 | 84 | 1019.9 |
| 20260906154010 | 75 | 144 | 6.1 | 7.0 | 0.00 | 0.00 | 0.00 | 87 | 1019.8 |
| 20260906153510 | 75 | 134 | 4.3 | 7.0 | 0.00 | 0.00 | 0.00 | 85 | 1019.9 |
| 20260906153005 | 78 | 49 | 5.2 | 7.8 | 0.00 | 0.00 | 0.00 | 81 | 1019.7 |
| 20260906152459 | 76 | 84 | 4.3 | 8.7 | 0.00 | 0.00 | 0.00 | 85 | 1019.9 |
| 20260906151958 | 75 | 59 | 0.0 | 7.0 | 0.00 | 0.00 | 0.00 | 87 | 1019.8 |
| 20260906151454 | 75 | 141 | 2.6 | 7.0 | 0.00 | 0.00 | 0.00 | 86 | 1019.9 |
| 20260906150950 | 75 | 118 | 0.0 | 7.0 | 0.00 | 0.00 | 0.00 | 87 | 1019.7 |
| 20260906150445 | 75 | 137 | 4.3 | 6.1 | 0.00 | 0.00 | 0.00 | 88 | 1019.6 |
| 20260906145944 | 73 | 70 | 1.7 | 4.3 | 0.00 | 0.00 | 0.00 | 90 | 1019.8 |
| 20260906145444 | 75 | 125 | 1.7 | 7.8 | 0.00 | 0.00 | 0.00 | 88 | 1019.7 |
| 20260906144938 | 73 | 81 | 2.6 | 7.8 | 0.00 | 0.00 | 0.00 | 91 | 1019.4 |
| 20260906144433 | 72 | 120 | 2.6 | 5.2 | 0.00 | 0.00 | 0.00 | 92 | 1019.4 |
| 20260906143929 | 72 | 107 | 2.6 | 7.0 | 0.00 | 0.00 | 0.00 | 93 | 1019.6 |
| 20260906143424 | 72 | 83 | 6.1 | 7.8 | 0.00 | 0.00 | 0.00 | 92 | 1019.5 |
| 20260906142920 | 72 | 99 | 1.7 | 5.2 | 0.00 | 0.00 | 0.00 | 93 | 1019.4 |
| 20260906142419 | 71 | 113 | 1.7 | 8.7 | 0.00 | 0.00 | 0.00 | 94 | 1019.2 |
| 20260906141914 | 71 | 112 | 4.3 | 8.7 | 0.00 | 0.00 | 0.00 | 94 | 1019.3 |
| 20260906141414 | 71 | 65 | 3.5 | 7.8 | 0.00 | 0.00 | 0.00 | 94 | 1019.4 |
| 20260906140908 | 70 | 91 | 1.7 | 9.6 | 0.00 | 0.00 | 0.00 | 95 | 1019.5 |
| 20260906140403 | 70 | 77 | 7.0 | 7.8 | 0.00 | 0.00 | 0.00 | 95 | 1019.3 |
| 20260906135900 | 70 | 95 | 6.1 | 7.8 | 0.00 | 0.00 | 0.00 | 95 | 1019.4 |
| 20260906135354 | 70 | 86 | 6.1 | 7.0 | 0.00 | 0.00 | 0.00 | 95 | 1019.3 |
| 20260906134850 | 70 | 44 | 1.7 | 5.2 | 0.00 | 0.00 | 0.00 | 96 | 1019.5 |
| 20260906134345 | 70 | 80 | 3.5 | 6.1 | 0.00 | 0.00 | 0.00 | 96 | 1019.1 |
| 20260906133841 | 70 | 77 | 3.5 | 7.0 | 0.00 | 0.00 | 0.00 | 96 | 1019.3 |
| 20260906133336 | 69 | 273 | 0.0 | 6.1 | 0.00 | 0.00 | 0.00 | 97 | 1019.0 |
| 20260906132831 | 69 | 70 | 1.7 | 9.6 | 0.00 | 0.00 | 0.00 | 97 | 1019.3 |
| 20260906132327 | 69 | 85 | 2.6 | 7.8 | 0.00 | 0.00 | 0.00 | 97 | 1019.1 |
| 20260906131822 | 69 | 82 | 7.8 | 11.3 | 0.00 | 0.00 | 0.00 | 97 | 1018.9 |
| 20260906131317 | 69 | 90 | 4.3 | 7.8 | 0.00 | 0.00 | 0.00 | 98 | 1019.1 |
| 20260906130813 | 69 | 69 | 2.6 | 5.2 | 0.00 | 0.00 | 0.00 | 98 | 1019.2 |
| 20260906130313 | 69 | 78 | 4.3 | 6.1 | 0.00 | 0.00 | 0.00 | 98 | 1019.2 |
| 20260906125812 | 68 | 106 | 2.6 | 7.8 | 0.00 | 0.00 | 0.00 | 99 | 1019.0 |
| 20260906125309 | 68 | 85 | 0.0 | 4.3 | 0.00 | 0.00 | 0.00 | 99 | 1019.1 |
| 20260906124804 | 68 | 93 | 0.9 | 6.1 | 0.00 | 0.00 | 0.00 | 99 | 1019.0 |
| 20260906124300 | 68 | 83 | 5.2 | 6.1 | 0.00 | 0.00 | 0.00 | 99 | 1019.3 |
| 20260906123759 | 68 | 73 | 1.7 | 6.1 | 0.00 | 0.00 | 0.00 | 99 | 1019.3 |
| 20260906123254 | 67 | 82 | 3.5 | 5.2 | 0.00 | 0.00 | 0.00 | 99 | 1019.0 |
| 20260906122754 | 67 | 352 | 0.0 | 4.3 | 0.00 | 0.00 | 0.00 | 99 | 1019.1 |
| 20260906122249 | 67 | 81 | 2.6 | 5.2 | 0.00 | 0.00 | 0.00 | 99 | 1019.3 |
| 20260906121745 | 67 | 68 | 0.9 | 3.5 | 0.00 | 0.00 | 0.00 | 99 | 1019.0 |
| 20260906121241 | 67 | 65 | 1.7 | 2.6 | 0.00 | 0.00 | 0.00 | 99 | 1019.1 |
| 20260906120737 | 66 | 54 | 2.6 | 3.5 | 0.00 | 0.00 | 0.00 | 99 | 1018.9 |
| 20260906120234 | 66 | 57 | 1.7 | 5.2 | 0.00 | 0.00 | 0.00 | 99 | 1018.9 |
| 20260906115729 | 66 | 47 | 2.6 | 5.2 | 0.00 | 0.00 | 0.00 | 99 | 1018.9 |
| 20260906115224 | 66 | 99 | 4.3 | 5.2 | 0.00 | 0.00 | 0.00 | 99 | 1019.0 |
| 20260906114723 | 67 | 79 | 1.7 | 4.3 | 0.00 | 0.00 | 0.00 | 99 | 1018.7 |
| 20260906114218 | 66 | 73 | 2.6 | 4.3 | 0.00 | 0.00 | 0.00 | 99 | 1018.7 |
| 20260906113713 | 66 | 48 | 1.7 | 5.2 | 0.00 | 0.00 | 0.00 | 99 | 1018.6 |
| 20260906113212 | 66 | 48 | 1.7 | 4.3 | 0.00 | 0.00 | 0.00 | 99 | 1018.3 |
| 20260906112707 | 66 | 78 | 1.7 | 4.3 | 0.00 | 0.00 | 0.00 | 99 | 1018.3 |
| 20260906112204 | 66 | 76 | 3.5 | 5.2 | 0.00 | 0.00 | 0.00 | 99 | 1018.2 |
| 20260906111703 | 67 | 23 | 0.9 | 7.0 | 0.00 | 0.00 | 0.00 | 99 | 1018.1 |
| 20260906111158 | 67 | 27 | 1.7 | 5.2 | 0.00 | 0.00 | 0.00 | 99 | 1018.0 |
| 20260906110653 | 67 | 66 | 3.5 | 5.2 | 0.00 | 0.00 | 0.00 | 99 | 1017.9 |
| 20260906110148 | 67 | 12 | 0.0 | 6.1 | 0.00 | 0.00 | 0.00 | 99 | 1018.0 |
| 20260906105642 | 67 | 105 | 1.7 | 6.1 | 0.00 | 0.00 | 0.00 | 99 | 1018.0 |
| 20260906105138 | 67 | 79 | 1.7 | 6.1 | 0.00 | 0.00 | 0.00 | 99 | 1017.8 |
| 20260906104638 | 67 | 78 | 3.5 | 4.3 | 0.00 | 0.00 | 0.00 | 99 | 1017.7 |
| 20260906104137 | 67 | 83 | 1.7 | 6.1 | 0.00 | 0.00 | 0.00 | 99 | 1017.7 |
| 20260906103635 | 67 | 48 | 1.7 | 7.0 | 0.00 | 0.00 | 0.00 | 99 | 1017.5 |
| 20260906103130 | 67 | 352 | 1.7 | 5.2 | 0.00 | 0.00 | 0.00 | 99 | 1017.5 |
| 20260906102626 | 67 | 66 | 3.5 | 4.3 | 0.00 | 0.00 | 0.00 | 99 | 1017.6 |
| 20260906102120 | 68 | 92 | 0.0 | 8.7 | 0.00 | 0.00 | 0.00 | 99 | 1017.3 |
| 20260906101615 | 68 | 116 | 0.9 | 7.8 | 0.00 | 0.00 | 0.00 | 99 | 1017.2 |
| 20260906101115 | 68 | 69 | 4.3 | 9.6 | 0.00 | 0.00 | 0.00 | 99 | 1017.2 |
| 20260906100610 | 68 | 91 | 3.5 | 8.7 | 0.00 | 0.00 | 0.00 | 99 | 1017.0 |
| 20260906100105 | 68 | 59 | 3.5 | 6.1 | 0.00 | 0.00 | 0.00 | 99 | 1017.3 |
| 20260906095604 | 68 | 99 | 2.6 | 6.1 | 0.00 | 0.00 | 0.00 | 99 | 1017.2 |
| 20260906095059 | 68 | 95 | 2.6 | 6.1 | 0.00 | 0.00 | 0.00 | 99 | 1017.1 |
| 20260906094558 | 68 | 93 | 3.5 | 6.1 | 0.00 | 0.00 | 0.00 | 99 | 1017.1 |
| 20260906094054 | 68 | 69 | 3.5 | 7.8 | 0.00 | 0.00 | 0.00 | 99 | 1017.2 |
| 20260906093550 | 68 | 83 | 3.5 | 7.8 | 0.00 | 0.00 | 0.00 | 99 | 1017.2 |
| 20260906093045 | 68 | 86 | 1.7 | 6.1 | 0.00 | 0.00 | 0.00 | 99 | 1017.2 |
| 20260906092540 | 68 | 71 | 3.5 | 5.2 | 0.00 | 0.00 | 0.00 | 99 | 1017.2 |
| 20260906092036 | 68 | 48 | 0.9 | 4.3 | 0.00 | 0.00 | 0.00 | 99 | 1017.2 |
| 20260906091531 | 68 | 96 | 1.7 | 4.3 | 0.00 | 0.00 | 0.00 | 99 | 1017.4 |
| 20260906091027 | 68 | 103 | 2.6 | 4.3 | 0.00 | 0.00 | 0.00 | 99 | 1017.4 |
| 20260906090522 | 68 | 80 | 0.9 | 4.3 | 0.00 | 0.00 | 0.00 | 99 | 1017.3 |
| 20260906090017 | 68 | 62 | 0.0 | 2.6 | 0.00 | 0.00 | 0.00 | 99 | 1017.4 |
| 20260906085516 | 68 | 47 | 0.9 | 2.6 | 0.00 | 0.00 | 0.00 | 99 | 1017.3 |
| 20260906085015 | 68 | 62 | 2.6 | 5.2 | 0.00 | 0.00 | 0.00 | 99 | 1017.2 |
| 20260906084510 | 68 | 97 | 0.9 | 4.3 | 0.00 | 0.00 | 0.00 | 99 | 1017.3 |
| 20260906084009 | 69 | 65 | 1.7 | 4.3 | 0.00 | 0.00 | 0.00 | 99 | 1017.4 |
| 20260906083505 | 69 | 89 | 1.7 | 4.3 | 0.00 | 0.00 | 0.00 | 99 | 1017.4 |
| 20260906083004 | 69 | 73 | 2.6 | 4.3 | 0.00 | 0.00 | 0.00 | 99 | 1017.6 |
| 20260906082500 | 69 | 52 | 0.9 | 4.3 | 0.00 | 0.00 | 0.00 | 99 | 1017.2 |
| 20260906081955 | 69 | 55 | 0.9 | 2.6 | 0.00 | 0.00 | 0.00 | 99 | 1017.5 |
| 20260906081450 | 69 | 89 | 0.0 | 5.2 | 0.00 | 0.00 | 0.00 | 99 | 1017.5 |
| 20260906080946 | 69 | 22 | 1.7 | 4.3 | 0.00 | 0.00 | 0.00 | 99 | 1017.4 |
| 20260906080442 | 69 | 61 | 2.6 | 5.2 | 0.00 | 0.00 | 0.00 | 99 | 1017.3 |
| 20260906075937 | 69 | 86 | 1.7 | 4.3 | 0.00 | 0.00 | 0.00 | 99 | 1017.3 |
| 20260906075432 | 69 | 88 | 0.0 | 3.5 | 0.00 | 0.00 | 0.00 | 98 | 1017.2 |
| 20260906074927 | 69 | 81 | 3.5 | 5.2 | 0.00 | 0.00 | 0.00 | 98 | 1017.3 |
| 20260906074427 | 69 | 61 | 3.5 | 7.0 | 0.00 | 0.00 | 0.00 | 98 | 1017.2 |
| 20260906073926 | 69 | 79 | 2.6 | 3.5 | 0.00 | 0.00 | 0.00 | 98 | 1017.3 |
| 20260906073421 | 69 | 84 | 0.0 | 4.3 | 0.00 | 0.00 | 0.00 | 97 | 1017.3 |
| 20260906072917 | 70 | 77 | 2.6 | 7.0 | 0.00 | 0.00 | 0.00 | 97 | 1017.2 |
| 20260906072412 | 70 | 24 | 1.7 | 7.8 | 0.00 | 0.00 | 0.00 | 97 | 1017.3 |
| 20260906071908 | 70 | 71 | 1.7 | 4.3 | 0.00 | 0.00 | 0.00 | 97 | 1017.6 |
| 20260906071403 | 70 | 57 | 2.6 | 7.0 | 0.00 | 0.00 | 0.00 | 96 | 1017.5 |
| 20260906070859 | 71 | 65 | 3.5 | 9.6 | 0.00 | 0.00 | 0.00 | 96 | 1017.3 |
| 20260906070355 | 71 | 31 | 2.6 | 8.7 | 0.00 | 0.00 | 0.00 | 95 | 1017.6 |
| 20260906065850 | 71 | 81 | 2.6 | 7.8 | 0.00 | 0.00 | 0.00 | 95 | 1017.7 |
| 20260906065344 | 71 | 71 | 2.6 | 6.1 | 0.00 | 0.00 | 0.00 | 95 | 1017.8 |
| 20260906064840 | 71 | 84 | 4.3 | 7.8 | 0.00 | 0.00 | 0.00 | 95 | 1017.7 |
| 20260906064336 | 71 | 83 | 4.3 | 9.6 | 0.00 | 0.00 | 0.00 | 95 | 1017.8 |
| 20260906063831 | 71 | 84 | 4.3 | 7.8 | 0.00 | 0.00 | 0.00 | 96 | 1017.5 |
| 20260906063326 | 71 | 79 | 8.7 | 9.6 | 0.00 | 0.00 | 0.00 | 96 | 1017.6 |
| 20260906062821 | 71 | 84 | 3.5 | 7.8 | 0.00 | 0.00 | 0.00 | 96 | 1017.4 |
| 20260906062320 | 72 | 90 | 3.5 | 7.8 | 0.00 | 0.00 | 0.00 | 96 | 1017.3 |
| 20260906061816 | 72 | 68 | 3.5 | 9.6 | 0.00 | 0.00 | 0.00 | 96 | 1017.3 |
| 20260906061312 | 72 | 99 | 2.6 | 7.8 | 0.00 | 0.00 | 0.00 | 96 | 1017.1 |
| 20260906060807 | 72 | 93 | 2.6 | 7.8 | 0.00 | 0.00 | 0.00 | 95 | 1017.4 |
| 20260906060305 | 72 | 75 | 3.5 | 11.3 | 0.00 | 0.00 | 0.00 | 95 | 1017.7 |
| 20260906055800 | 72 | 53 | 2.6 | 11.3 | 0.00 | 0.00 | 0.00 | 95 | 1017.3 |
| 20260906055255 | 72 | 66 | 5.2 | 17.4 | 0.00 | 0.00 | 0.00 | 96 | 1017.6 |
| 20260906054750 | 72 | 77 | 1.7 | 4.3 | 0.00 | 0.00 | 0.00 | 97 | 1017.7 |
| 20260906054246 | 73 | 67 | 2.6 | 9.6 | 0.00 | 0.00 | 0.00 | 96 | 1017.7 |
| 20260906053743 | 73 | 85 | 2.6 | 6.1 | 0.00 | 0.00 | 0.00 | 96 | 1017.6 |
| 20260906053238 | 73 | 89 | 4.3 | 7.8 | 0.00 | 0.00 | 0.00 | 96 | 1017.5 |
| 20260906052733 | 73 | 94 | 2.6 | 6.1 | 0.00 | 0.00 | 0.00 | 96 | 1017.5 |
| 20260906052229 | 73 | 101 | 1.7 | 6.1 | 0.00 | 0.00 | 0.00 | 96 | 1017.4 |
| 20260906051726 | 73 | 80 | 4.3 | 9.6 | 0.00 | 0.00 | 0.00 | 96 | 1017.4 |
| 20260906051225 | 73 | 93 | 1.7 | 6.1 | 0.00 | 0.00 | 0.00 | 96 | 1017.4 |
| 20260906050720 | 73 | 70 | 3.5 | 6.1 | 0.00 | 0.00 | 0.00 | 95 | 1017.2 |
| 20260906050216 | 73 | 89 | 6.1 | 7.8 | 0.00 | 0.00 | 0.00 | 95 | 1017.4 |
| 20260906045714 | 73 | 104 | 2.6 | 6.1 | 0.00 | 0.00 | 0.00 | 95 | 1017.3 |
| 20260906045209 | 74 | 95 | 3.5 | 4.3 | 0.00 | 0.00 | 0.00 | 94 | 1017.4 |
| 20260906044705 | 74 | 38 | 0.0 | 3.5 | 0.00 | 0.00 | 0.00 | 94 | 1017.4 |
| 20260906044200 | 74 | 49 | 0.0 | 3.5 | 0.00 | 0.00 | 0.00 | 93 | 1017.5 |
| 20260906043656 | 74 | 178 | 0.0 | 4.3 | 0.00 | 0.00 | 0.00 | 93 | 1017.4 |
| 20260906043152 | 74 | 48 | 2.6 | 4.3 | 0.00 | 0.00 | 0.00 | 93 | 1017.3 |
| 20260906042651 | 74 | 16 | 0.9 | 4.3 | 0.00 | 0.00 | 0.00 | 92 | 1016.9 |
| 20260906042145 | 75 | 35 | 2.6 | 7.0 | 0.00 | 0.00 | 0.00 | 92 | 1017.0 |
| 20260906041641 | 75 | 51 | 2.6 | 4.3 | 0.00 | 0.00 | 0.00 | 92 | 1016.7 |
| 20260906041136 | 75 | 61 | 3.5 | 7.0 | 0.00 | 0.00 | 0.00 | 92 | 1016.6 |
| 20260906040631 | 75 | 14 | 1.7 | 7.0 | 0.00 | 0.00 | 0.00 | 92 | 1016.7 |
| 20260906040127 | 75 | 0 | 0.0 | 7.0 | 0.00 | 0.00 | 0.00 | 92 | 1016.6 |
| 20260906035622 | 75 | 60 | 1.7 | 4.3 | 0.00 | 0.00 | 0.00 | 92 | 1016.5 |
| 20260906035117 | 75 | 44 | 0.9 | 2.6 | 0.00 | 0.00 | 0.00 | 92 | 1016.7 |
| 20260906034612 | 75 | 4 | 2.6 | 3.5 | 0.00 | 0.00 | 0.00 | 92 | 1016.5 |
| 20260906034107 | 75 | 69 | 0.9 | 4.3 | 0.00 | 0.00 | 0.00 | 92 | 1016.2 |
| 20260906033602 | 74 | 58 | 1.7 | 3.5 | 0.00 | 0.00 | 0.00 | 93 | 1016.3 |
| 20260906033057 | 74 | 0 | 0.0 | 2.6 | 0.00 | 0.00 | 0.00 | 93 | 1016.4 |
| 20260906032554 | 74 | 25 | 0.0 | 0.9 | 0.00 | 0.00 | 0.00 | 93 | 1016.3 |
| 20260906032053 | 74 | 73 | 0.0 | 1.7 | 0.00 | 0.00 | 0.00 | 93 | 1016.4 |
| 20260906031549 | 74 | 0 | 0.0 | 1.7 | 0.00 | 0.00 | 0.00 | 94 | 1016.3 |
| 20260906031045 | 74 | 343 | 0.0 | 1.7 | 0.00 | 0.00 | 0.00 | 94 | 1016.3 |
| 20260906030544 | 74 | 354 | 0.0 | 1.7 | 0.00 | 0.00 | 0.00 | 94 | 1016.0 |
| 20260906030043 | 73 | 334 | 0.0 | 1.7 | 0.00 | 0.00 | 0.00 | 94 | 1016.2 |
| 20260906025538 | 73 | 315 | 0.0 | 1.7 | 0.00 | 0.00 | 0.00 | 94 | 1016.1 |
| 20260906025036 | 73 | 48 | 0.0 | 1.7 | 0.00 | 0.00 | 0.00 | 94 | 1016.0 |
| 20260906024532 | 73 | 304 | 0.0 | 0.9 | 0.00 | 0.00 | 0.00 | 94 | 1015.9 |
| 20260906024031 | 73 | 62 | 0.0 | 0.0 | 0.00 | 0.00 | 0.00 | 94 | 1016.0 |
| 20260906023528 | 73 | 63 | 0.0 | 1.7 | 0.00 | 0.00 | 0.00 | 94 | 1015.9 |
| 20260906023023 | 73 | 180 | 0.0 | 0.0 | 0.00 | 0.00 | 0.00 | 94 | 1016.1 |
| 20260906022518 | 73 | 122 | 1.7 | 2.6 | 0.00 | 0.00 | 0.00 | 94 | 1015.8 |
| 20260906022013 | 74 | 52 | 0.0 | 2.6 | 0.00 | 0.00 | 0.00 | 93 | 1015.8 |
| 20260906021508 | 74 | 99 | 0.0 | 3.5 | 0.00 | 0.00 | 0.00 | 93 | 1015.5 |
| 20260906021002 | 74 | 73 | 2.6 | 4.3 | 0.00 | 0.00 | 0.00 | 93 | 1015.5 |
| 20260906020456 | 74 | 75 | 1.7 | 2.6 | 0.00 | 0.00 | 0.00 | 93 | 1015.5 |
| 20260906015955 | 74 | 96 | 1.7 | 2.6 | 0.00 | 0.00 | 0.00 | 92 | 1015.5 |
| 20260906015450 | 74 | 66 | 4.3 | 6.1 | 0.00 | 0.00 | 0.00 | 92 | 1015.6 |
| 20260906014950 | 74 | 94 | 3.5 | 5.2 | 0.00 | 0.00 | 0.00 | 92 | 1015.4 |
| 20260906014449 | 74 | 52 | 1.7 | 4.3 | 0.00 | 0.00 | 0.00 | 92 | 1015.3 |
| 20260906013946 | 74 | 85 | 0.0 | 6.1 | 0.00 | 0.00 | 0.00 | 92 | 1015.2 |
| 20260906013441 | 75 | 113 | 0.9 | 4.3 | 0.00 | 0.00 | 0.00 | 91 | 1015.2 |
| 20260906012936 | 75 | 87 | 2.6 | 6.1 | 0.00 | 0.00 | 0.00 | 91 | 1015.1 |
| 20260906012431 | 75 | 44 | 2.6 | 4.3 | 0.00 | 0.00 | 0.00 | 91 | 1015.0 |
| 20260906011930 | 75 | 84 | 3.5 | 4.3 | 0.00 | 0.00 | 0.00 | 91 | 1015.1 |
| 20260906011426 | 75 | 102 | 0.9 | 5.2 | 0.00 | 0.00 | 0.00 | 91 | 1015.1 |
| 20260906010921 | 75 | 39 | 1.7 | 6.1 | 0.00 | 0.00 | 0.00 | 90 | 1015.1 |
| 20260906010417 | 76 | 57 | 2.6 | 7.0 | 0.00 | 0.00 | 0.00 | 90 | 1015.1 |
| 20260906005913 | 76 | 43 | 4.3 | 5.2 | 0.00 | 0.00 | 0.00 | 90 | 1015.4 |
| 20260906005412 | 76 | 48 | 2.6 | 7.0 | 0.00 | 0.00 | 0.00 | 91 | 1015.3 |
| 20260906004910 | 76 | 81 | 2.6 | 7.8 | 0.00 | 0.00 | 0.00 | 90 | 1015.2 |
| 20260906004405 | 77 | 84 | 4.3 | 7.8 | 0.00 | 0.00 | 0.00 | 89 | 1015.2 |
| 20260906003900 | 77 | 64 | 4.3 | 7.0 | 0.00 | 0.00 | 0.00 | 88 | 1015.3 |
| 20260906003356 | 78 | 38 | 6.1 | 6.1 | 0.00 | 0.00 | 0.00 | 87 | 1015.3 |
| 20260906002851 | 78 | 27 | 4.3 | 7.8 | 0.00 | 0.00 | 0.00 | 86 | 1015.4 |
| 20260906002350 | 78 | 71 | 6.1 | 7.0 | 0.00 | 0.00 | 0.00 | 85 | 1015.3 |
| 20260906001846 | 79 | 62 | 4.3 | 8.7 | 0.00 | 0.00 | 0.00 | 85 | 1015.1 |
| 20260906001342 | 79 | 62 | 2.6 | 7.8 | 0.00 | 0.00 | 0.00 | 84 | 1015.3 |
| 20260906000836 | 80 | 99 | 2.6 | 7.8 | 0.00 | 0.00 | 0.00 | 84 | 1015.5 |
| 20260906000333 | 80 | 31 | 1.7 | 7.0 | 0.00 | 0.00 | 0.00 | 84 | 1015.5 |
| 20260905235831 | 80 | 40 | 1.7 | 5.2 | 0.00 | 0.00 | 0.00 | 84 | 1015.2 |
| 20260905235326 | 81 | 75 | 3.5 | 8.7 | 0.00 | 0.00 | 0.00 | 84 | 1015.4 |
| 20260905234821 | 81 | 46 | 4.3 | 11.3 | 0.00 | 0.00 | 0.00 | 83 | 1015.1 |
| 20260905234316 | 82 | 73 | 5.2 | 8.7 | 0.00 | 0.00 | 0.00 | 82 | 1015.1 |
| 20260905233811 | 82 | 105 | 3.5 | 11.3 | 0.00 | 0.00 | 0.00 | 82 | 1015.0 |
| 20260905233306 | 83 | 73 | 3.5 | 9.6 | 0.00 | 0.00 | 0.00 | 81 | 1015.1 |
| 20260905232804 | 83 | 60 | 4.3 | 8.7 | 0.00 | 0.00 | 0.00 | 81 | 1014.9 |
| 20260905232300 | 83 | 59 | 1.7 | 16.5 | 0.00 | 0.00 | 0.00 | 81 | 1014.9 |
| 20260905231751 | 84 | 59 | 4.3 | 10.4 | 0.00 | 0.00 | 0.00 | 81 | 1014.9 |
| 20260905231246 | 84 | 77 | 4.3 | 8.7 | 0.00 | 0.00 | 0.00 | 81 | 1014.9 |
| 20260905230742 | 85 | 105 | 0.9 | 6.1 | 0.00 | 0.00 | 0.00 | 80 | 1014.7 |
| 20260905230240 | 84 | 74 | 3.5 | 7.8 | 0.00 | 0.00 | 0.00 | 80 | 1014.9 |
| 20260905225740 | 85 | 242 | 0.9 | 7.8 | 0.00 | 0.00 | 0.00 | 80 | 1014.8 |
| 20260905225235 | 85 | 358 | 3.5 | 7.0 | 0.00 | 0.00 | 0.00 | 80 | 1014.8 |
| 20260905224734 | 85 | 350 | 0.9 | 8.7 | 0.00 | 0.00 | 0.00 | 80 | 1015.2 |
| 20260905224230 | 86 | 334 | 5.2 | 7.8 | 0.00 | 0.00 | 0.00 | 79 | 1015.1 |
| 20260905223726 | 85 | 39 | 2.6 | 8.7 | 0.00 | 0.00 | 0.00 | 80 | 1015.0 |
| 20260905223223 | 86 | 76 | 2.6 | 9.6 | 0.00 | 0.00 | 0.00 | 79 | 1015.0 |
| 20260905222718 | 86 | 53 | 3.5 | 9.6 | 0.00 | 0.00 | 0.00 | 79 | 1015.0 |
| 20260905222217 | 86 | 19 | 5.2 | 6.1 | 0.00 | 0.00 | 0.00 | 78 | 1014.9 |
| 20260905221713 | 86 | 340 | 1.7 | 7.0 | 0.00 | 0.00 | 0.00 | 77 | 1014.7 |
| 20260905221210 | 87 | 41 | 3.5 | 7.0 | 0.00 | 0.00 | 0.00 | 77 | 1014.9 |
| 20260905220705 | 86 | 0 | 5.2 | 8.7 | 0.00 | 0.00 | 0.00 | 77 | 1014.7 |
| 20260905220201 | 86 | 66 | 2.6 | 8.7 | 0.00 | 0.00 | 0.00 | 77 | 1014.7 |
| 20260905215700 | 86 | 4 | 3.5 | 9.6 | 0.00 | 0.00 | 0.00 | 78 | 1014.5 |
| 20260905215156 | 86 | 32 | 6.1 | 9.6 | 0.00 | 0.00 | 0.00 | 78 | 1014.9 |
| 20260905214652 | 86 | 357 | 3.5 | 7.0 | 0.00 | 0.00 | 0.00 | 78 | 1014.7 |
| 20260905214147 | 86 | 72 | 2.6 | 8.7 | 0.00 | 0.00 | 0.00 | 78 | 1015.0 |
| 20260905213642 | 87 | 55 | 5.2 | 7.0 | 0.00 | 0.00 | 0.00 | 77 | 1014.9 |
| 20260905213138 | 88 | 35 | 3.5 | 7.0 | 0.00 | 0.00 | 0.00 | 76 | 1014.9 |
| 20260905212633 | 87 | 355 | 0.9 | 7.0 | 0.00 | 0.00 | 0.00 | 78 | 1014.7 |
| 20260905212132 | 89 | 54 | 3.5 | 8.7 | 0.00 | 0.00 | 0.00 | 76 | 1014.6 |
| 20260905211627 | 88 | 34 | 3.5 | 8.7 | 0.00 | 0.00 | 0.00 | 77 | 1014.6 |
| 20260905211123 | 88 | 43 | 3.5 | 12.2 | 0.00 | 0.00 | 0.00 | 77 | 1014.6 |
| 20260905210619 | 89 | 54 | 4.3 | 9.6 | 0.00 | 0.00 | 0.00 | 76 | 1014.3 |
| 20260905210114 | 89 | 72 | 5.2 | 10.4 | 0.00 | 0.00 | 0.00 | 76 | 1014.3 |
| 20260905205613 | 90 | 15 | 3.5 | 7.0 | 0.00 | 0.00 | 0.00 | 75 | 1014.5 |
| 20260905205112 | 90 | 65 | 9.6 | 11.3 | 0.00 | 0.00 | 0.00 | 75 | 1014.5 |
| 20260905204606 | 90 | 1 | 2.6 | 10.4 | 0.00 | 0.00 | 0.00 | 75 | 1014.8 |
| 20260905204101 | 90 | 331 | 0.0 | 9.6 | 0.00 | 0.00 | 0.00 | 76 | 1014.6 |
| 20260905203556 | 90 | 25 | 3.5 | 9.6 | 0.00 | 0.00 | 0.00 | 77 | 1014.6 |
| 20260905203052 | 89 | 91 | 4.3 | 10.4 | 0.00 | 0.00 | 0.00 | 77 | 1014.8 |
| 20260905202547 | 90 | 39 | 3.5 | 10.4 | 0.00 | 0.00 | 0.00 | 75 | 1014.6 |
| 20260905202042 | 92 | 349 | 0.9 | 5.2 | 0.00 | 0.00 | 0.00 | 72 | 1014.8 |
| 20260905201538 | 91 | 48 | 2.6 | 6.1 | 0.00 | 0.00 | 0.00 | 73 | 1014.6 |
| 20260905201037 | 92 | 32 | 3.5 | 12.2 | 0.00 | 0.00 | 0.00 | 72 | 1014.8 |
| 20260905200533 | 92 | 75 | 5.2 | 7.8 | 0.00 | 0.00 | 0.00 | 72 | 1014.8 |
| 20260905200032 | 91 | 41 | 0.9 | 5.2 | 0.00 | 0.00 | 0.00 | 73 | 1014.6 |
| 20260905195526 | 91 | 324 | 2.6 | 10.4 | 0.00 | 0.00 | 0.00 | 71 | 1014.7 |
| 20260905195022 | 93 | 39 | 2.6 | 6.1 | 0.00 | 0.00 | 0.00 | 68 | 1014.4 |
| 20260905194521 | 93 | 55 | 3.5 | 5.2 | 0.00 | 0.00 | 0.00 | 68 | 1014.7 |
| 20260905194015 | 93 | 65 | 6.1 | 9.6 | 0.00 | 0.00 | 0.00 | 68 | 1014.9 |
| 20260905193510 | 93 | 57 | 2.6 | 7.8 | 0.00 | 0.00 | 0.00 | 70 | 1014.8 |
| 20260905193005 | 92 | 292 | 1.7 | 8.7 | 0.00 | 0.00 | 0.00 | 70 | 1014.5 |
| 20260905192500 | 93 | 47 | 3.5 | 8.7 | 0.00 | 0.00 | 0.00 | 68 | 1014.8 |
| 20260905191956 | 93 | 357 | 0.0 | 3.5 | 0.00 | 0.00 | 0.00 | 69 | 1014.8 |
| 20260905191455 | 92 | 38 | 0.9 | 4.3 | 0.00 | 0.00 | 0.00 | 70 | 1014.8 |
| 20260905190954 | 92 | 287 | 3.5 | 6.1 | 0.00 | 0.00 | 0.00 | 70 | 1014.9 |
| 20260905190452 | 94 | 68 | 2.6 | 5.2 | 0.00 | 0.00 | 0.00 | 68 | 1014.9 |
| 20260905185951 | 94 | 32 | 1.7 | 3.5 | 0.00 | 0.00 | 0.00 | 68 | 1014.8 |
| 20260905185447 | 92 | 289 | 1.7 | 4.3 | 0.00 | 0.00 | 0.00 | 72 | 1014.9 |
| 20260905184945 | 90 | 53 | 1.7 | 6.1 | 0.00 | 0.00 | 0.00 | 74 | 1015.1 |
| 20260905184440 | 91 | 21 | 1.7 | 5.2 | 0.00 | 0.00 | 0.00 | 72 | 1014.9 |
| 20260905183938 | 93 | 76 | 2.6 | 5.2 | 0.00 | 0.00 | 0.00 | 70 | 1015.0 |
| 20260905183433 | 92 | 350 | 0.9 | 4.3 | 0.00 | 0.00 | 0.00 | 70 | 1014.9 |
| 20260905182928 | 93 | 37 | 0.9 | 9.6 | 0.00 | 0.00 | 0.00 | 69 | 1015.0 |
| 20260905182427 | 92 | 13 | 2.6 | 6.1 | 0.00 | 0.00 | 0.00 | 70 | 1014.9 |
| 20260905181923 | 93 | 30 | 0.0 | 4.3 | 0.00 | 0.00 | 0.00 | 71 | 1014.9 |
| 20260905181418 | 92 | 314 | 1.7 | 5.2 | 0.00 | 0.00 | 0.00 | 71 | 1014.9 |
| 20260905180918 | 92 | 46 | 1.7 | 3.5 | 0.00 | 0.00 | 0.00 | 71 | 1015.0 |
| 20260905180413 | 92 | 340 | 0.9 | 4.3 | 0.00 | 0.00 | 0.00 | 71 | 1015.0 |
| 20260905175913 | 93 | 243 | 2.6 | 5.2 | 0.00 | 0.00 | 0.00 | 70 | 1015.2 |
| 20260905175412 | 92 | 347 | 1.7 | 3.5 | 0.00 | 0.00 | 0.00 | 70 | 1015.3 |
| 20260905174907 | 92 | 41 | 2.6 | 7.0 | 0.00 | 0.00 | 0.00 | 71 | 1015.1 |
| 20260905174403 | 92 | 320 | 1.7 | 6.1 | 0.00 | 0.00 | 0.00 | 70 | 1015.0 |
| 20260905173858 | 91 | 67 | 2.6 | 6.1 | 0.00 | 0.00 | 0.00 | 71 | 1015.4 |
| 20260905173355 | 92 | 6 | 0.0 | 4.3 | 0.00 | 0.00 | 0.00 | 71 | 1015.2 |
| 20260905172849 | 94 | 43 | 7.8 | 7.8 | 0.00 | 0.00 | 0.00 | 68 | 1015.4 |
| 20260905172347 | 93 | 145 | 2.6 | 3.5 | 0.00 | 0.00 | 0.00 | 70 | 1015.1 |
| 20260905171843 | 91 | 19 | 0.9 | 4.3 | 0.00 | 0.00 | 0.00 | 71 | 1015.4 |
| 20260905171340 | 92 | 1 | 2.6 | 7.0 | 0.00 | 0.00 | 0.00 | 70 | 1015.6 |
| 20260905170836 | 91 | 116 | 1.7 | 7.0 | 0.00 | 0.00 | 0.00 | 72 | 1015.6 |
| 20260905170332 | 93 | 204 | 0.0 | 6.1 | 0.00 | 0.00 | 0.00 | 70 | 1015.4 |
| 20260905165831 | 92 | 105 | 2.6 | 6.1 | 0.00 | 0.00 | 0.00 | 72 | 1015.6 |
| 20260905165327 | 91 | 105 | 2.6 | 6.1 | 0.00 | 0.00 | 0.00 | 72 | 1015.6 |
| 20260905164826 | 91 | 17 | 0.9 | 4.3 | 0.00 | 0.00 | 0.00 | 72 | 1015.5 |
| 20260905164321 | 91 | 357 | 0.0 | 6.1 | 0.00 | 0.00 | 0.00 | 73 | 1015.7 |
| 20260905163817 | 92 | 20 | 2.6 | 5.2 | 0.00 | 0.00 | 0.00 | 72 | 1015.5 |
| 20260905163313 | 91 | 58 | 3.5 | 4.3 | 0.00 | 0.00 | 0.00 | 72 | 1015.6 |
| 20260905162809 | 90 | 55 | 3.5 | 6.1 | 0.00 | 0.00 | 0.00 | 73 | 1015.5 |
| 20260905162309 | 91 | 114 | 0.9 | 6.1 | 0.00 | 0.00 | 0.00 | 72 | 1015.6 |
| 20260905161803 | 90 | 287 | 1.7 | 7.0 | 0.00 | 0.00 | 0.00 | 73 | 1015.5 |
| 20260905161303 | 91 | 79 | 1.7 | 6.1 | 0.00 | 0.00 | 0.00 | 72 | 1015.1 |
| 20260905160801 | 89 | 17 | 2.6 | 6.1 | 0.00 | 0.00 | 0.00 | 75 | 1015.6 |
| 20260905160255 | 89 | 52 | 3.5 | 5.2 | 0.00 | 0.00 | 0.00 | 74 | 1015.4 |
| 20260905155750 | 90 | 67 | 4.3 | 8.7 | 0.00 | 0.00 | 0.00 | 73 | 1015.3 |